Find Starlink 30890

NORAD ID: 58362 Int'l Des: 2023-177 Owner: SPXS Country: US Constellation: starlink operational
LEOCIRCULAR

当前视图

正在加载3D地球...

About Starlink 30890

Starlink 30890 (NORAD 58362) is a starlink constellation satellite (v2 mini) launched Nov 18, 2023 by SPXS of US. It operates in LEO, CIRCULAR orbit with a mass of 730.00 kg.

关于 Starlink 30890

正在加载描述...

即将过境

Passes for default location (London). Set your location on the main map for personalized predictions.

高度历史

Loading altitude history...

两行轨道根数

1 58362U 23177M 26193.48344772 -.00001219 00000-0 -34793-4 0 9999
2 58362 43.0036 5.7872 0001546 296.3918 63.6775 15.27567041147267
Epoch: Jul 12, 2026 • Age: 10 hours

当前状态

高度 484.2 km
远地点 / 近地点 N/A
速度 7.62 km/s
星下点 -6.05°S, 68.56°W
发射日期 Nov 18, 2023
运行时间 2.6 years
类型 internet

技术详情

分类 Payload
质量 730.00 kg
干质量 700.00 kg
总质量 730.00 kg
长度 0.30 m
直径 4.10 m
跨度 29.00 m
形状 Box + pan
制造商 SPXS
平台类型 Starlink V2M
阶段状态 In Orbit
所有者/国家 SPXS/US

Most Searched